Stations météo

Publicité
Montpellier, France (7643): Température de l'air & dewpoint: 13.10.2017 21:00:00 - 19.10.2017 21:00:00 (CEST)Montpellier, France (7643): Température de l'air 5cm: 13.10.2017 21:00:00 - 19.10.2017 21:00:00 (CEST)Montpellier, France (7643): Température de l'air -20cm & Température de l'air -100cm: 13.10.2017 21:00:00 - 19.10.2017 21:00:00 (CEST)Montpellier, France (7643): Vitesse du vent & gusts: 13.10.2017 21:00:00 - 19.10.2017 21:00:00 (CEST)Montpellier, France (7643): Direction du vent: 13.10.2017 21:00:00 - 19.10.2017 21:00:00 (CEST)Montpellier, France (7643): reduced air pressure: 13.10.2017 21:00:00 - 19.10.2017 21:00:00 (CEST)Montpellier, France (7643): visibility: 13.10.2017 21:00:00 - 19.10.2017 21:00:00 (CEST)Montpellier, France (7643): Ensoleillement: 13.10.2017 21:00:00 - 19.10.2017 21:00:00 (CEST)Montpellier, France (7643): Quantités de précipitations: 13.10.2017 21:00:00 - 19.10.2017 21:00:00 (CEST)
Date & Time tt [°C] td [°C] tt 5cm [°C] tt -20cm [°C] tt -100cm [°C] ff [km/h] ff [knt] fx [km/h] fx [knt] dd ppp [hPa] vv [km] sd [min] rr [mm]
19.10.2017 21:00:00 19,2 15,3 19,0 19,9 21,3 15 8 30 16 ESE 1013,8 10 0 0,0
19.10.2017 20:00:00 19,3 16,1 18,9 19,9 21,2 18 10 28 15 ESE 1013,3 10 0 0,0
19.10.2017 19:00:00 19,3 15,6 18,2 19,9 21,3 18 10 35 19 ESE 1012,7 10 0 0,0
19.10.2017 18:00:00 19,5 15,8 18,9 20,0 21,3 24 13 43 23 SE 1012,5 10 0 0,0
19.10.2017 17:00:00 19,6 16,4 19,4 20,0 21,3 34 18 54 29 ESE 1011,8 10 0 0,0
19.10.2017 16:00:00 19,5 16,7 19,6 20,0 21,3 41 22 56 30 SE 1012,2 10 0 0,0
19.10.2017 15:00:00 19,7 16,5 19,7 20,0 21,3 39 21 57 31 SE 1012,6 10 0 0,0
19.10.2017 14:00:00 19,7 16,7 19,9 20,1 21,3 37 20 55 30 ESE 1012,9 10 0 0,0
19.10.2017 13:00:00 19,7 16,9 17,9 20,1 21,3 39 21 58 32 ESE 1013,4 10 0 0,2
19.10.2017 12:00:00 19,0 16,2 17,4 20,1 21,3 31 17 48 26 ESE 1014,0 10 0 0,4
19.10.2017 11:00:00 18,7 16,3 17,2 20,2 21,3 37 20 53 28 ESE 1013,4 10 0 0,2
19.10.2017 10:00:00 18,7 16,1 16,3 20,2 21,3 35 19 49 27 ESE 1013,5 10 0 0,0
19.10.2017 09:00:00 17,4 16,8 15,7 20,3 21,3 29 16 44 24 ESE 1013,3 10 0 3,0
19.10.2017 08:00:00 16,2 15,4 15,5 20,3 21,3 5 3 38 20 - 1013,8 2,8 0 14,3
19.10.2017 07:00:00 19,0 16,8 18,5 20,3 21,3 35 19 54 29 ESE 1013,7 10 0 0,0
19.10.2017 06:00:00 18,6 16,4 16,4 20,3 21,3 29 16 43 23 ESE 1013,5 10 0 0,0
19.10.2017 05:00:00 17,0 13,7 16,2 20,4 21,3 15 8 29 15 ENE 1013,7 10 0 0,0
19.10.2017 04:00:00 17,9 14,4 16,9 20,4 21,3 26 14 56 30 E 1012,9 10 0 0,0
19.10.2017 03:00:00 18,1 16,1 17,0 20,4 21,3 39 21 56 30 ESE 1013,7 10 0 0,8
19.10.2017 02:00:00 18,1 16,4 17,1 20,4 21,3 31 17 49 26 ESE 1013,8 6 0 1,2
19.10.2017 01:00:00 19,1 16,5 19,0 20,4 21,3 35 19 51 27 ESE 1014,3 10 0 0,0
19.10.2017 00:00:00 19,1 16,5 19,1 20,4 21,3 39 21 55 30 ESE 1014,4 10 0 0,0
18.10.2017 23:00:00 19,2 16,6 19,1 20,4 21,3 37 20 54 29 ESE 1014,7 10 0 0,0
18.10.2017 22:00:00 19,2 16,8 19,1 20,4 21,3 37 20 51 28 ESE 1014,4 10 0 0,0
18.10.2017 21:00:00 19,2 16,6 19,1 20,4 21,3 35 19 52 28 ESE 1014,7 10 0 0,0
18.10.2017 20:00:00 19,3 16,7 19,0 20,4 21,3 34 18 53 29 ESE 1014,5 10 0 0,0
18.10.2017 19:00:00 19,1 16,5 19,0 20,4 21,3 37 20 52 28 ESE 1014,0 10 0 0,0
18.10.2017 18:00:00 19,3 16,5 19,4 20,4 21,3 35 19 53 28 SE 1014,0 10 0 0,0
18.10.2017 17:00:00 19,4 16,4 19,5 20,4 21,3 39 21 55 30 SE 1014,8 10 0 0,0
18.10.2017 16:00:00 19,6 16,2 19,8 20,4 21,3 35 19 55 30 SE 1014,8 10 0 0,0
18.10.2017 15:00:00 19,6 16,1 19,4 20,4 21,3 41 22 58 31 ESE 1014,9 10 0 0,0
18.10.2017 14:00:00 19,4 16,2 19,6 20,4 21,3 41 22 60 32 ESE 1015,8 10 19 0,0
18.10.2017 13:00:00 20,8 16,4 19,6 20,4 21,3 39 21 56 31 SE 1016,5 10 17 0,0
18.10.2017 12:00:00 19,2 16,2 18,2 20,5 21,3 41 22 55 30 SE 1017,0 10 0 0,2
18.10.2017 11:00:00 19,0 16,4 19,1 20,5 21,3 37 20 50 27 SE 1017,4 10 18 0,0
18.10.2017 10:00:00 18,6 16,7 15,6 20,5 21,3 28 15 37 20 ESE 1017,6 10 7 0,0
18.10.2017 09:00:00 15,9 14,4 15,6 20,5 21,3 18 10 23 12 E 1017,9 10 0 0,0
18.10.2017 08:00:00 15,5 14,0 15,4 20,6 21,3 16 9 24 13 ENE 1017,8 8 0 0,0
18.10.2017 07:00:00 15,9 14,4 15,9 20,5 21,3 16 9 29 16 ENE 1018,0 6 0 0,0
18.10.2017 06:00:00 17,3 16,0 16,9 20,6 21,3 21 11 29 16 E 1018,4 8 0 0,0
18.10.2017 05:00:00 17,0 15,9 16,4 20,6 21,4 22 12 34 19 E 1018,9 8 0 0,0
18.10.2017 04:00:00 16,6 15,1 16,7 20,6 21,3 24 13 32 17 E 1019,3 8 0 0,0
18.10.2017 03:00:00 17,1 15,4 17,2 20,6 21,3 18 10 26 14 E 1019,9 8 0 0,0
18.10.2017 02:00:00 18,2 16,7 17,4 20,6 21,4 18 10 25 14 E 1020,3 10 0 0,0
18.10.2017 01:00:00 17,2 15,7 17,4 20,6 21,3 18 10 23 12 ENE 1020,6 5 0 0,0
18.10.2017 00:00:00 17,6 15,9 17,7 20,6 21,3 16 9 24 13 ENE 1021,1 9 0 0,0
17.10.2017 23:00:00 18,6 16,9 18,3 20,6 21,3 18 10 27 14 ESE 1021,3 10 0 0,0
17.10.2017 22:00:00 18,4 16,9 17,7 20,6 21,4 18 10 24 13 ESE 1021,3 10 0 0,0
17.10.2017 21:00:00 18,0 16,5 17,5 20,6 21,4 13 7 22 12 ESE 1021,6 10 0 0,0
17.10.2017 20:00:00 17,9 16,1 17,5 20,5 21,4 15 8 22 12 ESE 1021,8 10 0 0,0
17.10.2017 19:00:00 18,6 16,0 18,6 20,5 21,4 18 10 26 14 ESE 1021,5 10 0 0,0
17.10.2017 18:00:00 18,7 15,6 19,0 20,5 21,3 18 10 26 14 SE 1021,8 10 13 0,0
17.10.2017 17:00:00 18,9 15,4 19,6 20,5 21,4 18 10 23 13 SE 1022,3 10 2 0,0
17.10.2017 16:00:00 19,4 15,1 20,8 20,5 21,4 18 10 28 15 SSE 1022,8 10 12 0,0
17.10.2017 15:00:00 19,9 14,9 22,1 20,5 21,4 16 9 22 12 SE 1023,2 10 30 0,0
17.10.2017 14:00:00 21,4 14,8 26,2 20,5 21,3 11 6 20 11 E 1024,1 9 60 0,0
17.10.2017 13:00:00 19,2 14,5 21,0 20,6 21,3 13 7 20 11 ENE 1025,1 10 43 0,0
17.10.2017 12:00:00 16,7 14,2 18,8 20,6 21,4 13 7 19 11 ENE 1025,5 7 14 0,0
17.10.2017 11:00:00 14,9 13,4 17,1 20,6 21,3 13 7 18 10 NE 1025,8 7 0 0,0
17.10.2017 10:00:00 14,4 12,6 14,3 20,7 21,4 13 7 18 10 NNE 1025,8 10 0 0,0
17.10.2017 09:00:00 13,3 12,7 13,4 20,7 21,3 9 5 18 10 N 1025,6 2,6 0 0,0
17.10.2017 08:00:00 13,4 13,2 13,6 20,8 21,3 13 7 16 9 N 1025,5 1,8 0 0,0
17.10.2017 07:00:00 13,8 13,5 14,0 20,8 21,4 9 5 12 6 N 1025,6 1,8 0 0,0
17.10.2017 06:00:00 14,0 13,7 14,2 20,8 21,3 8 4 16 8 N 1025,6 2,4 0 0,0
17.10.2017 05:00:00 14,1 13,5 13,7 20,9 21,3 11 6 16 9 NNE 1025,6 3,6 0 0,0
17.10.2017 04:00:00 13,3 12,4 11,9 20,9 21,4 8 4 11 6 NE 1026,2 6 0 0,0
17.10.2017 03:00:00 12,2 11,1 11,1 20,9 21,4 8 4 10 5 ENE 1026,6 5 0 0,0
17.10.2017 02:00:00 12,4 11,3 11,7 20,9 21,4 5 3 10 6 - 1027,0 6 0 0,0
17.10.2017 01:00:00 12,7 11,3 12,0 20,9 21,4 8 4 9 5 N 1027,2 7 0 0,0
17.10.2017 00:00:00 14,4 13,1 13,0 21,0 21,4 8 4 9 5 N 1027,3 9 0 0,0
16.10.2017 23:00:00 14,3 12,8 12,3 21,0 21,4 5 3 8 4 - 1027,2 9 0 0,0
16.10.2017 22:00:00 15,4 13,6 12,7 20,9 21,4 0 0 6 4 N 1027,1 10 0 0,0
16.10.2017 21:00:00 17,0 15,0 14,4 20,9 21,4 4 2 10 5 - 1027,1 10 0 0,0
16.10.2017 20:00:00 17,5 15,1 15,8 20,9 21,4 8 4 12 7 SSE 1027,1 10 0 0,0
16.10.2017 19:00:00 18,6 14,7 17,9 20,8 21,4 9 5 16 8 S 1027,0 10 13 0,0
16.10.2017 18:00:00 19,3 14,5 20,1 20,8 21,4 11 6 18 10 SSE 1026,9 10 40 0,0
16.10.2017 17:00:00 20,6 15,4 23,2 20,8 21,4 15 8 22 12 SSE 1027,0 10 60 0,0
16.10.2017 16:00:00 21,1 15,0 25,3 20,7 21,4 15 8 21 12 SSE 1027,3 10 60 0,0
16.10.2017 15:00:00 21,4 15,0 26,3 20,7 21,4 15 8 20 11 SSE 1027,7 10 60 0,0
16.10.2017 14:00:00 22,0 14,1 27,5 20,7 21,4 15 8 21 12 SSE 1028,4 10 60 0,0
16.10.2017 13:00:00 22,4 15,0 24,4 20,7 21,3 13 7 18 10 SE 1028,8 10 56 0,0
16.10.2017 12:00:00 21,4 15,9 22,9 20,8 21,4 11 6 19 11 E 1029,1 10 46 0,0
16.10.2017 11:00:00 18,9 15,2 19,5 20,8 21,3 15 8 18 10 E 1029,2 10 29 0,0
16.10.2017 10:00:00 17,3 14,6 17,5 20,8 21,4 13 7 17 9 NE 1029,0 10 8 0,0
16.10.2017 09:00:00 16,3 14,7 15,4 20,9 21,4 9 5 13 7 NE 1028,4 9 0 0,0
16.10.2017 08:00:00 15,7 14,4 15,2 20,9 21,4 8 4 14 8 NE 1027,7 7 0 0,0
16.10.2017 07:00:00 15,7 14,4 15,3 20,9 21,4 8 4 16 9 NE 1027,5 9 0 0,0
16.10.2017 06:00:00 15,6 14,5 15,0 20,9 21,4 9 5 14 8 NE 1027,4 8 0 0,0
16.10.2017 05:00:00 15,4 14,1 15,0 21,0 21,4 8 4 12 7 NNE 1027,4 9 0 0,0
16.10.2017 04:00:00 15,6 14,1 15,5 21,0 21,4 9 5 13 7 NE 1027,6 9 0 0,0
16.10.2017 03:00:00 15,7 14,1 15,6 21,0 21,4 9 5 13 7 NNE 1028,0 9 0 0,0
16.10.2017 02:00:00 16,2 14,4 16,2 21,0 21,4 9 5 13 7 NE 1028,1 10 0 0,0
16.10.2017 01:00:00 16,1 14,5 15,6 21,0 21,4 9 5 11 6 NE 1028,4 11 0 0,0
16.10.2017 00:00:00 15,9 14,6 14,5 21,0 21,4 8 4 9 5 NNE 1028,5 10 0 0,0
15.10.2017 23:00:00 16,0 14,5 15,0 20,9 21,3 8 4 11 6 NNE 1028,4 10 0 0,0
15.10.2017 22:00:00 16,9 14,7 15,3 20,9 21,4 4 2 8 4 - 1028,3 10 0 0,0
15.10.2017 21:00:00 17,9 15,3 16,1 20,9 21,4 4 2 10 5 - 1028,4 10 0 0,0
15.10.2017 20:00:00 18,3 15,5 17,2 20,9 21,4 2 1 14 7 - 1028,2 10 0 0,0
15.10.2017 19:00:00 18,9 16,3 18,5 20,8 21,4 11 6 19 10 SE 1027,7 10 0 0,0
15.10.2017 18:00:00 19,4 16,4 19,8 20,8 21,4 15 8 25 13 SE 1027,7 10 34 0,0
15.10.2017 17:00:00 20,8 16,6 22,0 20,8 21,4 18 10 27 14 SSE 1027,8 10 46 0,0
15.10.2017 16:00:00 21,4 16,6 24,8 20,8 21,4 21 11 27 15 SE 1028,1 10 53 0,0
15.10.2017 15:00:00 21,9 16,6 23,1 20,7 21,4 21 11 27 14 SE 1028,3 10 22 0,0
15.10.2017 14:00:00 21,4 15,9 22,7 20,7 21,4 18 10 24 13 SE 1029,0 10 4 0,0
15.10.2017 13:00:00 21,1 15,9 23,2 20,7 21,4 8 4 16 9 SSE 1029,5 10 19 0,0
15.10.2017 12:00:00 21,4 15,2 22,9 20,7 21,4 9 5 19 10 E 1029,6 10 25 0,0
15.10.2017 11:00:00 20,2 14,6 21,8 20,7 21,4 13 7 19 10 ENE 1029,8 10 50 0,0
15.10.2017 10:00:00 18,3 14,0 17,8 20,8 21,4 13 7 16 9 ENE 1029,5 10 19 0,0
15.10.2017 09:00:00 17,0 13,9 16,2 20,8 21,4 8 4 14 7 NNE 1029,3 10 0 0,0
15.10.2017 08:00:00 16,6 14,2 16,1 20,8 21,4 9 5 14 7 NE 1028,9 7 0 0,0
15.10.2017 07:00:00 17,2 14,8 17,1 20,8 21,4 9 5 16 9 NE 1028,7 7 0 0,0
15.10.2017 06:00:00 17,4 15,0 17,2 20,8 21,4 11 6 14 8 NE 1028,5 9 0 0,0
15.10.2017 05:00:00 17,7 15,3 17,7 20,8 21,4 9 5 14 8 NE 1028,3 10 0 0,0
15.10.2017 04:00:00 17,9 15,5 17,9 20,8 21,4 9 5 13 7 NE 1028,3 10 0 0,0
15.10.2017 03:00:00 18,1 15,2 18,1 20,8 21,4 8 4 14 8 NE 1028,5 10 0 0,0
15.10.2017 02:00:00 18,3 15,5 18,2 20,8 21,4 5 3 10 5 NE 1028,6 10 0 0,0
15.10.2017 01:00:00 18,7 16,5 18,5 20,8 21,4 5 3 11 6 E 1028,5 10 0 0,0
15.10.2017 00:00:00 18,8 16,6 18,7 20,8 21,4 4 2 16 9 - 1028,5 10 0 0,0
14.10.2017 23:00:00 18,9 16,1 18,7 20,8 21,4 13 7 18 10 SSE 1028,3 10 0 0,0
14.10.2017 22:00:00 18,8 15,3 18,4 20,7 21,4 8 4 16 9 S 1028,3 10 0 0,0
14.10.2017 21:00:00 18,7 15,2 18,2 20,7 21,4 11 6 14 8 SE 1028,1 10 0 0,0
14.10.2017 20:00:00 18,8 15,8 18,3 20,7 21,4 4 2 9 5 - 1027,8 10 0 0,0
14.10.2017 19:00:00 19,1 15,6 18,9 20,7 21,4 5 3 13 7 - 1027,4 10 0 0,0
14.10.2017 18:00:00 19,6 15,7 20,2 20,6 21,4 9 5 18 10 S 1027,5 10 0 0,0
14.10.2017 17:00:00 20,6 15,6 22,6 20,7 21,4 8 4 14 8 SSE 1027,4 10 1 0,0
14.10.2017 16:00:00 21,0 14,9 23,8 20,7 21,4 5 3 9 5 - 1027,5 10 10 0,0
14.10.2017 15:00:00 21,0 15,3 22,8 20,6 21,4 5 3 14 8 SE 1027,9 10 0 0,0
14.10.2017 14:00:00 20,0 15,8 21,2 20,6 21,4 8 4 10 6 SE 1028,6 8 0 0,0
14.10.2017 13:00:00 19,6 15,5 20,0 20,7 21,4 5 3 13 7 ESE 1029,1 9 0 0,0
14.10.2017 12:00:00 19,1 15,4 19,3 20,7 21,4 9 5 13 7 E 1029,2 9 0 0,0
14.10.2017 11:00:00 18,7 14,6 19,1 20,7 21,4 5 3 9 5 ENE 1029,0 10 0 0,0
14.10.2017 10:00:00 18,3 14,4 18,3 20,7 21,4 5 3 9 5 NNE 1028,5 10 0 0,0
14.10.2017 09:00:00 18,0 14,5 17,8 20,7 21,4 5 3 11 6 NNE 1027,9 10 0 0,0
14.10.2017 08:00:00 17,8 14,7 17,8 20,7 21,4 8 4 18 10 N 1027,3 10 0 0,0
14.10.2017 07:00:00 17,8 14,9 17,8 20,7 21,4 5 3 14 8 NNE 1027,0 10 0 0,0
14.10.2017 06:00:00 17,9 15,5 17,9 20,7 21,4 8 4 11 6 NE 1026,9 10 0 0,0
14.10.2017 05:00:00 18,1 15,9 18,1 20,7 21,4 4 2 11 6 NE 1026,9 10 0 0,0
14.10.2017 04:00:00 18,1 16,6 18,1 20,7 21,4 8 4 11 6 ENE 1027,0 10 0 0,0
14.10.2017 03:00:00 18,1 16,8 17,8 20,7 21,4 8 4 9 5 E 1027,2 10 0 0,0
14.10.2017 02:00:00 18,0 16,5 17,9 20,7 21,4 4 2 7 4 ESE 1027,2 10 0 0,0
14.10.2017 01:00:00 18,2 16,7 18,1 20,7 21,4 4 2 9 5 - 1027,1 10 0 0,0
14.10.2017 00:00:00 18,6 16,6 18,4 20,7 21,4 5 3 9 5 SSE 1027,0 10 0 0,0
13.10.2017 23:00:00 18,6 16,4 18,6 20,7 21,4 4 2 12 7 - 1027,0 10 0 0,0
13.10.2017 22:00:00 18,4 16,6 18,1 20,6 21,4 8 4 11 6 SE 1026,8 10 0 0,0
13.10.2017 21:00:00 18,0 16,5 17,5 20,6 21,4 0 0 4 2 N 1026,4 8 0 0,0

tt = Température de l'air
td = dewpoint
tt 5cm = Température de l'air 5cm
tt -20cm = Température de l'air -20cm
tt -100cm = Température de l'air -100cm
ff = Vitesse du vent
fx = gusts
dd = Direction du vent
ppp = reduced air pressure
vv = visibility
sd = Ensoleillement
rr = Quantités de précipitations

stations d'obs. à proximité